Weather History for Fort Myers Airport, FL

Change the Weather History Date:

Thursday, November 8, 2012

  Actual Average Record
Temperature  
Mean Temperature 61 °F -  
Max Temperature 69 °F 82 °F 89 °F (1986)
Min Temperature 52 °F 61 °F 46 °F (1951)
Degree Days  
Heating Degree Days 4    
Growing Degree Days 11 (Base 50)    
Moisture  
Dew Point 41 °F    
Average Humidity 52    
Maximum Humidity 83    
Minimum Humidity 27    
Precipitation  
Precipitation 0.00 in - - ()
Sea Level Pressure  
Sea Level Pressure 30.09 in    
Wind  
Wind Speed 6 mph (North)    
Max Wind Speed 14 mph    
Max Gust Speed 21 mph    
Visibility 10 miles    
Events      
Averages and records for this station are not official NWS values.
T = Trace of Precipitation, MM = Missing Value Source: NWS Daily Summary

Daily Weather History Graph

Daily Weather History Graph

Search for Another Location

Airport:

Trip Planner

Search our weather history database for the weather conditions in past years. The results will help you decide how hot, cold, wet, or windy it might be!

Date:

Astronomy

Nov. 08, 2012 Rise Set
Actual Time 6:41 AM EST 5:39 PM EST
Civil Twilight 6:17 AM EST 6:04 PM EST
Nautical Twilight 5:49 AM EST 6:31 PM EST
Astronomical Twilight 5:22 AM EST 6:59 PM EST
Moon 1:07 AM EST (11/8) 1:51 PM EST (11/8)
Length of Visible Light 11h 46m
Length of Day
10h 58m
Waning Crescent, 33% of the Moon is Illuminated
Nov 8
Waning Crescent
Nov 13
New
Nov 20
First Quarter
Nov 28
Full
Dec 6
Last Quarter

Hourly Weather History & Observations

Time (EST) Temp. Dew Point Humidity Pressure Visibility Wind Dir Wind Speed Gust Speed Precip Events Conditions
12:53 AM 57.0 °F 48.9 °F 74% 30.00 in 10.0 mi NE 3.5 mph - N/A   Overcast
1:53 AM 55.0 °F 50.0 °F 83% 29.99 in 10.0 mi Calm Calm - N/A   Scattered Clouds
2:53 AM 57.0 °F 48.0 °F 72% 30.00 in 10.0 mi North 6.9 mph - N/A   Overcast
3:53 AM 55.9 °F 46.9 °F 72% 30.01 in 10.0 mi North 6.9 mph - N/A   Overcast
4:53 AM 55.9 °F 45.0 °F 67% 30.04 in 10.0 mi NNE 6.9 mph - N/A   Overcast
5:53 AM 55.9 °F 42.1 °F 60% 30.06 in 10.0 mi NNE 6.9 mph - N/A   Overcast
6:53 AM 53.6 °F 42.8 °F 67% 30.08 in 10.0 mi NNE 5.8 mph - N/A   Mostly Cloudy
7:53 AM 57.0 °F 42.1 °F 57% 30.10 in 10.0 mi NNE 8.1 mph - N/A   Clear
8:53 AM 59.0 °F 39.0 °F 48% 30.12 in 10.0 mi North 10.4 mph - N/A   Clear
9:53 AM 61.0 °F 39.0 °F 44% 30.14 in 10.0 mi NNE 10.4 mph - N/A   Clear
10:53 AM 64.9 °F 39.0 °F 39% 30.14 in 10.0 mi North 12.7 mph 18.4 mph N/A   Clear
11:53 AM 66.0 °F 37.0 °F 34% 30.13 in 10.0 mi North 13.8 mph 20.7 mph N/A   Clear
12:53 PM 68.0 °F 36.0 °F 31% 30.10 in 10.0 mi NNW 12.7 mph 19.6 mph N/A   Clear
1:53 PM 69.1 °F 35.1 °F 29% 30.08 in 10.0 mi NNE 12.7 mph 19.6 mph N/A   Clear
2:53 PM 69.1 °F 34.0 °F 27% 30.07 in 10.0 mi NNW 10.4 mph - N/A   Clear
3:53 PM 68.0 °F 34.0 °F 28% 30.07 in 10.0 mi NNW 5.8 mph - N/A   Clear
4:53 PM 66.9 °F 34.0 °F 30% 30.07 in 10.0 mi NNE 6.9 mph - N/A   Clear
5:53 PM 62.1 °F 37.0 °F 39% 30.09 in 10.0 mi North 3.5 mph - N/A   Clear
6:53 PM 59.0 °F 37.9 °F 46% 30.11 in 10.0 mi North 3.5 mph - N/A   Clear
7:53 PM 57.9 °F 39.9 °F 51% 30.13 in 10.0 mi Calm Calm - N/A   Clear
8:53 PM 55.9 °F 41.0 °F 57% 30.14 in 10.0 mi NNE 5.8 mph - N/A   Clear
9:53 PM 54.0 °F 42.1 °F 64% 30.16 in 10.0 mi North 5.8 mph - N/A   Clear
10:53 PM 53.1 °F 42.1 °F 66% 30.17 in 10.0 mi North 4.6 mph - N/A   Clear
11:53 PM 52.0 °F 43.0 °F 71% 30.17 in 10.0 mi North 3.5 mph - N/A   Clear